Location: Sungai Anya
(2.6167°N, 114.0500°E)
Time: 15:15:27
(UTC+00:00)

Cosmos 1153 Rocket - Pass Details

Date: 06 June 2022
Orbit: 954 x 1005 km, 82.9° (Epoch: 03 July)

Event Time Altitude Azimuth Distance (km) Brightness Sun altitude
Rises 21:14:32 0° 349° (N) 3,718 7.7 -14.6°
Reaches altitude 10° 21:17:06 10° 346° (NNW) 2,768 7.0 -14.0°
Maximum altitude 21:23:21 61° 268° (W) 1,125 4.6 -12.6°
Drops below altitude 10° 21:29:35 10° 188° (S) 2,755 6.6 -11.2°
Sets 21:32:08 0° 184° (S) 3,699 7.3 -10.6°
